STARLINK-31213, 58860

Orbit data source: Space-Track

STARLINK-31213, 58860 is a payload satellite owned by SpaceX/Seattle (US) in LEO that was launched on Mon, 29 Jan 2024 UTC via an FALCON 9 launch vehicle from the Air Force Eastern Test Range (AFETR). Payload-class satellites include a variety of spacecraft equipped with specific instruments for various scientific and technological missions. These include communications satellites like Starlink; space stations such as the ISS; scientific satellites like the Hubble; Earth observation satellites from companies like Planet Labs, Umbra, and HawkEye 360; GPS; miniature CubeSats for education and research; and military/defense satellites.

Loading next visibility...
Identifier
58860, 2024-019H
Orbit
LEO
Country
Flag of USUS
Related business
Manufacturer
SpaceX/Seattle
Mission
Operational Commercial Communications
Bus & Motor
STARLINK V2M, Unknown motor
Mass
730 kg wet, ~700 kg dry
Launch date (UTC)
2024-01-29 (2 years ago)
Launch vehicle
FALCON 9
Launch site
Air Force Eastern Test Range (AFETR)
Object type
Payload
Rocket body
Debris
Shape & HBR
Box + 2 Pan, 17.7 m
Radar Cross Section
33.884 m², Large (>1 m²)

Expand to show TLE details & history
Last TLE update: 2 days ago

TLE from 2 days ago
0 STARLINK-31213
1 58860U 24019H   26171.02373723  .00000487  00000-0  27237-4 0  9991
2 58860  43.0022  30.9437 0001161 274.7406  85.3314 15.27565011134730
Epoch: 2026-06-20T00:34Z
TLE epoch observation values (Epoch: 2026-06-20T00:34:10.896Z)
Latitude
0.00004°
Longitude
114.15403°
Altitude
482.805 km
Speed
7.626 km/s
True Right ascension
02h 03m 46s
True Declination
0° 00' 00"
Sunlit
Object was in daylight at epoch
Visualization orbit readout
Latitude
Unknown
Longitude
Unknown
Altitude
Unknown
Speed
Unknown
Apparent Right ascension
Unknown
Apparent Declination
Unknown
Sunlit
N/A
Visualization observer readout
Local Sidereal Time
21:28:38
Azimuth
Unknown
Elevation
Unknown
Doppler factor
Unknown
Orbital elements
Apogee altitude
485.836 km
Perigee altitude
484.242 km
Semi-major axis
6,863.176 km
Eccentricity
0.00012
Inclination
43.0022°
RAAN
30.9437°
Arg. of periapsis
274.7406°
True anomaly
85.34466°
Mean anomaly
85.3314°
Eccentric anomaly
85.33803°
Mean motion
3.81729 °/min
Orbital period
94.31 mins
BSTAR
0.000027237
Loading maneuver chart data...
Computing Atmospheric mass density...
Loading historical data...
Loading historical data...
Loading historical data...
Loading historical data...
Loading historical data...
Loading historical data...
Loading historical data...

Documentation

Showing up to 5 results
|